Stations météo

Publicité
Dalwhinnie, Grande-Bretagne (99005): Température de l'air & dewpoint: 17.09.2018 15:00:00 - 23.09.2018 15:00:00 (BST)Dalwhinnie, Grande-Bretagne (99005): Quantités de précipitations: 17.09.2018 15:00:00 - 23.09.2018 15:00:00 (BST)
Date & Time tt [°C] td [°C] rr [mm]
23.09.2018 15:00:00 10,2 3,1 0,0
23.09.2018 14:00:00 8,2 3,9 0,0
23.09.2018 13:00:00 9,3 3,3 0,0
23.09.2018 12:00:00 7,8 3,6 0,0
23.09.2018 11:00:00 7,1 4,0 0,0
23.09.2018 10:00:00 4,8 4,5 0,0
23.09.2018 09:00:00 2,5 2,3 0,0
23.09.2018 08:00:00 1,6 1,3 0,0
23.09.2018 07:00:00 1,5 1,3 0,0
23.09.2018 06:00:00 1,2 1,0 0,0
23.09.2018 05:00:00 1,2 1,0 0,0
23.09.2018 04:00:00 0,5 0,1 0,0
23.09.2018 03:00:00 0,7 0,3 0,0
23.09.2018 02:00:00 1,7 1,3 0,2
23.09.2018 01:00:00 1,7 1,3 0,0
23.09.2018 00:00:00 2,1 1,5 0,0
22.09.2018 23:00:00 2,2 1,5 0,0
22.09.2018 22:00:00 3,6 2,4 0,0
22.09.2018 21:00:00 3,9 2,9 0,0
22.09.2018 20:00:00 5,9 3,6 0,0
22.09.2018 19:00:00 6,5 4,1 0,4
22.09.2018 18:00:00 8,9 3,4 0,0
22.09.2018 17:00:00 8,2 4,9 0,6
22.09.2018 16:00:00 7,6 4,5 0,4
22.09.2018 15:00:00 9,1 3,0 0,0
22.09.2018 14:00:00 8,9 4,2 0,0
22.09.2018 13:00:00 9,2 3,5 0,0
22.09.2018 12:00:00 9,2 4,0 0,0
22.09.2018 11:00:00 8,2 4,0 0,0
22.09.2018 10:00:00 7,2 3,6 0,0
22.09.2018 09:00:00 6,2 2,4 0,0
22.09.2018 08:00:00 6,5 2,0 0,0
22.09.2018 07:00:00 5,9 2,4 0,0
22.09.2018 06:00:00 6,1 2,5 0,0
22.09.2018 05:00:00 6,1 2,8 0,4
22.09.2018 04:00:00 6,1 3,2 0,0
22.09.2018 03:00:00 5,8 2,9 1,0
22.09.2018 02:00:00 5,6 3,4 0,2
22.09.2018 01:00:00 5,7 3,5 0,0
22.09.2018 00:00:00 6,1 3,4 0,2
21.09.2018 23:00:00 6,2 3,6 0,2
21.09.2018 22:00:00 6,2 3,6 0,6
21.09.2018 21:00:00 5,9 3,9 0,6
21.09.2018 20:00:00 7,3 3,4 0,0
21.09.2018 19:00:00 7,3 3,7 0,0
21.09.2018 18:00:00 8,5 3,9 0,0
21.09.2018 17:00:00 9,3 3,0 0,0
21.09.2018 16:00:00 8,8 4,7 0,2
21.09.2018 15:00:00 8,7 5,4 0,0
21.09.2018 14:00:00 8,2 4,1 0,0
21.09.2018 13:00:00 7,6 4,7 0,0
21.09.2018 12:00:00 6,9 5,5 1,0
21.09.2018 11:00:00 7,2 4,7 0,2
21.09.2018 10:00:00 7,2 3,2 0,0
21.09.2018 09:00:00 6,7 3,0 0,0
21.09.2018 08:00:00 6,2 3,2 0,0
21.09.2018 07:00:00 6,2 2,8 0,0
21.09.2018 06:00:00 6,0 3,1 0,0
21.09.2018 05:00:00 5,7 4,5 0,2
21.09.2018 04:00:00 4,9 4,3 0,0
21.09.2018 03:00:00 5,1 4,3 0,4
21.09.2018 02:00:00 5,3 4,2 0,0
21.09.2018 01:00:00 5,5 4,4 0,0
21.09.2018 00:00:00 5,5 4,1 0,0
20.09.2018 23:00:00 5,5 4,3 0,0
20.09.2018 22:00:00 6,1 4,4 0,0
20.09.2018 21:00:00 6,4 4,1 0,0
20.09.2018 20:00:00 7,2 4,8 0,0
20.09.2018 19:00:00 8,7 4,0 0,0
20.09.2018 18:00:00 9,2 3,9 0,0
20.09.2018 17:00:00 10,0 4,2 0,0
20.09.2018 16:00:00 10,5 4,2 0,0
20.09.2018 15:00:00 10,1 4,0 0,0
20.09.2018 14:00:00 10,8 3,7 0,0
20.09.2018 13:00:00 10,2 3,5 0,0
20.09.2018 12:00:00 10,5 4,7 0,0
20.09.2018 11:00:00 10,3 4,8 0,0
20.09.2018 10:00:00 8,6 4,5 0,0
20.09.2018 09:00:00 7,4 3,6 0,0
20.09.2018 08:00:00 7,1 4,1 0,0
20.09.2018 07:00:00 6,7 4,0 0,6
20.09.2018 06:00:00 7,4 3,6 0,0
20.09.2018 05:00:00 7,0 4,2 0,4
20.09.2018 04:00:00 7,2 4,4 0,4
20.09.2018 03:00:00 6,4 3,8 1,8
20.09.2018 02:00:00 6,3 4,0 0,0
20.09.2018 01:00:00 5,6 3,8 3,4
20.09.2018 00:00:00 6,1 4,4 3,4
19.09.2018 23:00:00 6,4 5,1 1,6
19.09.2018 22:00:00 6,4 4,0 1,4
19.09.2018 21:00:00 6,9 5,1 1,8
19.09.2018 20:00:00 7,5 4,9 0,0
19.09.2018 19:00:00 7,2 4,8 0,4
19.09.2018 18:00:00 7,1 5,4 3,0
19.09.2018 17:00:00 8,1 5,8 2,0
19.09.2018 16:00:00 8,2 5,7 0,4
19.09.2018 15:00:00 8,7 6,4 2,0
19.09.2018 14:00:00 9,8 7,8 0,8
19.09.2018 13:00:00 10,3 7,3 1,0
19.09.2018 12:00:00 11,0 9,2 8,0
19.09.2018 11:00:00 8,5 6,9 2,6
19.09.2018 10:00:00 7,6 6,2 2,6
19.09.2018 09:00:00 7,5 4,8 1,0
19.09.2018 08:00:00 7,8 5,4 0,2
19.09.2018 07:00:00 8,7 4,9 0,0
19.09.2018 06:00:00 8,6 5,6 0,0
19.09.2018 05:00:00 8,4 6,8 0,2
19.09.2018 04:00:00 8,3 6,7 0,6
19.09.2018 03:00:00 8,2 6,3 0,2
19.09.2018 02:00:00 6,5 5,2 3,6
19.09.2018 01:00:00 10,3 5,6 0,0
19.09.2018 00:00:00 10,5 7,2 0,0
18.09.2018 23:00:00 9,7 8,1 0,0
18.09.2018 22:00:00 10,2 8,0 1,0
18.09.2018 21:00:00 11,2 9,2 0,8
18.09.2018 20:00:00 11,7 9,9 0,0
18.09.2018 19:00:00 11,7 10,2 0,0
18.09.2018 18:00:00 12,2 10,5 0,0
18.09.2018 17:00:00 13,8 9,4 0,0
18.09.2018 16:00:00 14,8 10,6 0,0
18.09.2018 15:00:00 13,7 12,5 0,4
18.09.2018 14:00:00 14,4 13,5 0,2
18.09.2018 13:00:00 14,6 13,1 0,2
18.09.2018 12:00:00 14,6 12,9 0,0
18.09.2018 11:00:00 14,6 13,1 0,4
18.09.2018 10:00:00 14,0 12,6 0,0
18.09.2018 09:00:00 13,5 12,6 0,0
18.09.2018 08:00:00 13,6 12,5 0,0
18.09.2018 07:00:00 13,4 12,4 0,2
18.09.2018 06:00:00 13,5 12,5 0,6
18.09.2018 05:00:00 13,4 12,4 0,2
18.09.2018 04:00:00 13,5 12,5 0,2
18.09.2018 03:00:00 13,7 12,7 0,4
18.09.2018 02:00:00 13,7 12,7 0,6
18.09.2018 01:00:00 13,8 12,8 2,4
18.09.2018 00:00:00 14,1 12,7 2,0
17.09.2018 23:00:00 14,4 13,0 3,8
17.09.2018 22:00:00 14,4 13,2 3,8
17.09.2018 21:00:00 14,4 13,1 3,2
17.09.2018 20:00:00 13,6 12,3 3,6
17.09.2018 19:00:00 12,7 11,5 1,2
17.09.2018 18:00:00 12,2 10,7 0,4
17.09.2018 17:00:00 12,0 10,4 0,2
17.09.2018 16:00:00 11,4 9,6 0,2
17.09.2018 15:00:00 12,3 8,9 0,0

tt = Température de l'air
td = dewpoint
rr = Quantités de précipitations

stations d'obs. à proximité